Siren, WI

8:02 PM CDT on March 27, 2017 (GMT -0500)
Burnett County

Weather History for KRZN - June, 2014

Change the Weather History Date:

Saturday, June 7, 2014

  Actual Average Record
Temperature  
Mean Temperature 54 °F -  
Max Temperature 63 °F - - ()
Min Temperature 46 °F - - ()
Degree Days  
Heating Degree Days 10    
Growing Degree Days 4 (Base 50)    
Moisture  
Dew Point 51 °F    
Average Humidity 82    
Maximum Humidity 96    
Minimum Humidity 62    
Precipitation  
Precipitation 0.60 in - - ()
Sea Level Pressure  
Sea Level Pressure 30.02 in    
Wind  
Wind Speed 7 mph (NNE)    
Max Wind Speed 23 mph    
Max Gust Speed 26 mph    
Visibility 10 miles    
Events Rain    
Averages and records for this station are not official NWS values.
T = Trace of Precipitation, MM = Missing Value Source: NWS Daily Summary

Daily Weather History Graph

Daily Weather History Graph

Search for Another Location

Airport or City:

Trip Planner

Search our weather history database for the weather conditions in past years. The results will help you decide how hot, cold, wet, or windy it might be!

Date:

Astronomy

Jun. 07, 2014 Rise Set
Actual Time 5:20 AM CDT 8:56 PM CDT
Civil Twilight 4:42 AM CDT 9:34 PM CDT
Nautical Twilight 3:52 AM CDT 10:25 PM CDT
Astronomical Twilight 2:44 AM CDT 11:32 PM CDT
Moon 2:58 PM CDT (6/7) 2:00 AM CDT (6/7)
Length of Visible Light 16h 52m
Length of Day
15h 36m
Waxing Gibbous, 68% of the Moon is Illuminated
Jun 7
Waxing Gibbous
Jun 12
Full
Jun 19
Last Quarter
Jun 27
New
Jul 5
First Quarter

Hourly Weather History & Observations

Time (CDT) Temp. Dew Point Humidity Pressure Visibility Wind Dir Wind Speed Gust Speed Precip Events Conditions
12:10 AM 61.7 °F 54.3 °F 77% 29.96 in 10.0 mi NNE 5.8 mph - N/A   Clear
12:30 AM 62.4 °F 52.2 °F 69% 29.97 in 10.0 mi NE 3.5 mph - N/A   Scattered Clouds
12:50 AM 63.0 °F 50.9 °F 65% 29.97 in 10.0 mi NNE 4.6 mph - N/A   Mostly Cloudy
1:10 AM 63.0 °F 50.4 °F 63% 29.98 in 10.0 mi NE 3.5 mph - N/A   Overcast
1:30 AM 63.0 °F 49.6 °F 62% 29.96 in 10.0 mi NE 5.8 mph - N/A   Mostly Cloudy
1:50 AM 62.1 °F 50.0 °F 65% 29.94 in 10.0 mi NE 4.6 mph - N/A   Mostly Cloudy
2:10 AM 62.2 °F 49.8 °F 64% 29.94 in 10.0 mi NNE 4.6 mph - N/A   Mostly Cloudy
2:30 AM 61.9 °F 50.0 °F 65% 29.94 in 10.0 mi NE 4.6 mph - N/A   Mostly Cloudy
2:50 AM 61.9 °F 49.5 °F 64% 29.96 in 10.0 mi NW 5.8 mph - N/A   Overcast
3:10 AM 60.8 °F 49.5 °F 66% 29.97 in 10.0 mi North 9.2 mph - N/A Rain Rain
3:30 AM 58.1 °F 50.7 °F 76% 29.97 in 10.0 mi NE 8.1 mph - N/A Rain Light Rain
3:50 AM 57.6 °F 51.3 °F 79% 29.97 in 10.0 mi NNE 6.9 mph - N/A   Mostly Cloudy
4:10 AM 57.4 °F 51.8 °F 82% 29.97 in 10.0 mi North 5.8 mph - N/A   Overcast
4:50 AM 56.7 °F 52.2 °F 85% 29.96 in 10.0 mi NE 9.2 mph - N/A   Mostly Cloudy
5:10 AM 56.5 °F 50.9 °F 82% 29.97 in 10.0 mi NNE 10.4 mph 17.3 mph N/A   Overcast
5:30 AM 57.0 °F 50.0 °F 77% 30.00 in 10.0 mi North 11.5 mph 16.1 mph N/A   Overcast
5:50 AM 56.5 °F 49.6 °F 78% 30.00 in 10.0 mi North 8.1 mph 17.3 mph N/A   Overcast
6:10 AM 55.2 °F 50.0 °F 83% 30.07 in 10.0 mi NW 23.0 mph - 0.01 in Rain Rain
6:50 AM 52.9 °F 50.9 °F 93% 30.03 in 4.0 mi NE 15.0 mph 26.5 mph 0.45 in Rain Rain
7:10 AM 52.7 °F 50.9 °F 94% 29.99 in 5.0 mi NE 16.1 mph 26.5 mph 0.03 in Rain Rain
7:50 AM 52.3 °F 50.7 °F 94% 30.02 in 10.0 mi NNE 16.1 mph 21.9 mph 0.08 in Rain Light Rain
8:30 AM 51.8 °F 49.6 °F 92% 30.04 in 10.0 mi NE 5.8 mph - 0.01 in Rain Rain
9:10 AM 51.8 °F 50.2 °F 94% 30.05 in 10.0 mi NE 4.6 mph - N/A Rain Light Rain
9:30 AM 52.2 °F 50.7 °F 95% 30.05 in 10.0 mi NE 5.8 mph - N/A Rain Light Rain
9:50 AM 52.3 °F 51.1 °F 95% 30.04 in 10.0 mi NE 4.6 mph - 0.02 in Rain Rain
10:10 AM 52.7 °F 51.4 °F 95% 30.04 in 10.0 mi Calm Calm - 0.01 in Rain Light Rain
10:50 AM 52.9 °F 51.6 °F 95% 30.04 in 10.0 mi NNE 5.8 mph - 0.02 in Rain Rain
11:10 AM 53.1 °F 51.8 °F 95% 30.04 in 10.0 mi North 9.2 mph - 0.01 in Rain Light Rain
12:10 PM 53.8 °F 52.2 °F 94% 30.03 in 10.0 mi NNE 10.4 mph - N/A   Light Drizzle
12:30 PM 54.0 °F 52.3 °F 94% - 10.0 mi NNE 8.1 mph - N/A   Overcast
12:50 PM 54.5 °F 52.0 °F 91% 30.02 in 10.0 mi NNE 13.8 mph - N/A   Overcast
1:10 PM 55.6 °F 52.9 °F 91% 30.02 in 10.0 mi NE 10.4 mph - 0.01 in   Overcast
1:30 PM 55.2 °F 52.3 °F 90% 30.02 in 10.0 mi NNE 8.1 mph - 0.01 in   Overcast
1:50 PM 55.4 °F 52.2 °F 89% 30.02 in 10.0 mi NNE 11.5 mph 16.1 mph 0.01 in   Overcast
2:10 PM 55.4 °F 52.0 °F 88% 30.02 in 10.0 mi NNE 9.2 mph - N/A   Overcast
2:30 PM 55.2 °F 52.2 °F 89% 30.02 in 10.0 mi NNE 10.4 mph - N/A   Overcast
2:50 PM 55.2 °F 52.0 °F 89% 30.02 in 10.0 mi NNE 9.2 mph - N/A   Overcast
3:10 PM 55.6 °F 51.8 °F 87% 30.02 in 10.0 mi NNE 9.2 mph - N/A   Overcast
3:30 PM 54.9 °F 51.8 °F 89% 30.02 in 10.0 mi NE 9.2 mph 18.4 mph N/A   Overcast
3:50 PM 56.7 °F 52.2 °F 85% 30.02 in 10.0 mi NE 11.5 mph - N/A   Overcast
4:10 PM 56.1 °F 51.6 °F 85% 30.02 in 10.0 mi NE 9.2 mph - N/A   Overcast
4:30 PM 56.1 °F 51.8 °F 85% 30.02 in 10.0 mi NE 6.9 mph - N/A   Overcast
4:50 PM 56.3 °F 51.8 °F 85% 30.03 in 10.0 mi NE 6.9 mph - N/A   Overcast
5:10 PM 58.5 °F 51.8 °F 79% 30.03 in 10.0 mi NE 8.1 mph - N/A   Mostly Cloudy
5:30 PM 59.0 °F 49.8 °F 72% 30.03 in 10.0 mi NNE 8.1 mph 16.1 mph N/A   Scattered Clouds
5:50 PM 60.8 °F 49.8 °F 67% 30.03 in 10.0 mi NNE 9.2 mph - N/A   Scattered Clouds
6:10 PM 61.0 °F 49.1 °F 65% 30.03 in 10.0 mi NNE 9.2 mph - N/A   Clear
6:30 PM 61.2 °F 49.3 °F 65% 30.03 in 10.0 mi NE 4.6 mph - N/A   Clear
6:50 PM 61.2 °F 49.1 °F 65% 30.04 in 10.0 mi ENE 3.5 mph - N/A   Clear
7:10 PM 61.3 °F 48.6 °F 63% 30.04 in 10.0 mi East 4.6 mph - N/A   Clear
7:50 PM 60.4 °F 49.3 °F 67% 30.05 in 10.0 mi East 4.6 mph - N/A   Clear
8:10 PM 59.0 °F 49.3 °F 70% 30.05 in 10.0 mi ESE 3.5 mph - N/A   Clear
8:30 PM 57.6 °F 50.2 °F 76% 30.05 in 10.0 mi Calm Calm - N/A   Clear
8:50 PM 55.9 °F 51.1 °F 84% 30.05 in 10.0 mi SSE 3.5 mph - N/A   Clear
9:10 PM 54.7 °F 51.8 °F 90% 30.06 in 10.0 mi Calm Calm - N/A   Clear
9:30 PM 52.7 °F 51.1 °F 94% 30.06 in 10.0 mi Calm Calm - N/A   Clear
9:50 PM 52.0 °F 50.2 °F 94% 30.06 in 10.0 mi Calm Calm - N/A   Clear
10:10 PM 50.4 °F 49.3 °F 96% 30.07 in 10.0 mi Calm Calm - N/A   Clear
10:30 PM 49.1 °F 47.7 °F 95% 30.07 in 10.0 mi Calm Calm - N/A   Clear
11:10 PM 47.7 °F 46.2 °F 95% 30.08 in 10.0 mi Calm Calm - N/A   Clear
11:30 PM 46.6 °F 44.8 °F 93% 30.08 in 10.0 mi Calm Calm - N/A   Clear
11:50 PM 46.8 °F 45.7 °F 96% 30.08 in 1.2 mi Calm Calm - N/A   Mist